Regional Weather Roundup
Issued by NWS Upton, NY

Current Version | Previous Version | Text Only | Print | Product List | Glossary On
Versions: 1 2 3 4 5 6 7 8 9 10 11 12 13 14 15 16 17 18 19 20 21 22 23 24 25 26 27 28 29 30 31 32 33 34 35 36 37 38 39 40 41 42 43 44 45 46 47 48 49 50
000 ASUS41 KOKX 300318 RWROKX REGIONAL WEATHER ROUNDUP NATIONAL WEATHER SERVICE NEW YORK NY 1100 PM EDT MON JUN 29 2015 NOTE: "FAIR" INDICATES FEW OR NO CLOUDS BELOW 12,000 FEET WITH NO SIGNIFICANT WEATHER AND/OR OBSTRUCTIONS TO VISIBILITY. NYZ071-072-176-178-NJZ106-104-300400- NEW YORK CITY METRO AREA CITY SKY/WX TMP DP RH WIND PRES REMARKS CENTRAL PARK CLEAR 72 56 57 VRB3 29.97S LAGUARDIA APRT PTCLDY 74 55 51 S7 29.94R KENNEDY INTL PTCLDY 70 60 70 S8 29.96R NEWARK/LIBERTY CLEAR 71 59 65 S7 29.94S BRNX BOT. GARD N/A 70 55 60 SE3 29.96F TETERBORO CLEAR 72 56 57 S6 29.93S $$ NYZ177-179-078>081-300400- LONG ISLAND NEW YORK CITY SKY/WX TMP DP RH WIND PRES REMARKS FARMINGDALE CLEAR 68 61 78 S6 29.96R ISLIP CLEAR 66 61 84 SW6 29.95R SHIRLEY CLEAR 66 62 87 S5 29.97R WESTHAMPTON CLEAR 66 64 93 SW6 29.98R MONTAUK POINT N/A 68 62 81 SW8 29.97S $$ NYZ052-065-067-300400- HUDSON VALLEY CITY SKY/WX TMP DP RH WIND PRES REMARKS WHITE PLAINS CLEAR 65 58 78 CALM 29.95R NEWBURGH PTCLDY 64 61 88 CALM 29.95R MONTGOMERY PTCLDY 61 59 93 CALM 29.94R POUGHKEEPSIE PTCLDY 64 60 87 CALM 29.93R ALBANY MOCLDY 62 57 83 SW3 29.95R $$ NJZ001-105-106-008-010-013-015-019>022-104-300400- NEW JERSEY CITY SKY/WX TMP DP RH WIND PRES REMARKS NEWARK/LIBERTY CLEAR 71 59 65 S7 29.94S TETERBORO CLEAR 72 56 57 S6 29.93S CALDWELL CLEAR 65 58 78 CALM 29.95R MORRISTOWN CLEAR 63 59 88 CALM 29.95S SOMERVILLE CLEAR 62 59 90 CALM 29.94R SUSSEX CLOUDY 65 62 90 CALM 29.95R ANDOVER N/A 62 60 93 CALM 29.96R TRENTON CLEAR 70 56 61 CALM 29.95S MILLVILLE CLEAR 64 62 93 CALM 29.97S ATLANTIC CITY CLEAR 71 62 73 S6 29.98S WRIGHTSTOWN CLEAR 65 60 81 S6 29.95R TOMS RIVER CLEAR 63 59 88 CALM 29.98S BELMAR CLEAR 68 55 64 S5 29.97S $$ PAZ047>061-062-071-300400- EASTERN PENNSYLVANIA CITY SKY/WX TMP DP RH WIND PRES REMARKS PHILADELPHIA CLEAR 74 59 59 S8 29.96S ALLENTOWN PTCLDY 66 57 72 SW5 29.95R SCRANTON CLOUDY 67 61 81 CALM 29.95S $$ CTZ002-004>006-009-010-012-RIZ004-006-007-MAZ004-011-015-300400- SOUTHERN NEW ENGLAND IN CT CITY SKY/WX TMP DP RH WIND PRES REMARKS BRADLEY INTL PTCLDY 62 58 86 CALM 29.93S HARTFORD MOCLDY 64 59 83 S3 29.94R DANBURY MOCLDY 60 56 86 SW3 29.97R WTRBRY/OXFORD MOCLDY 61 54 77 CALM 29.98R BRIDGEPORT CLEAR 69 62 78 SW7 29.95R MERIDEN CLEAR 62 58 86 CALM 29.95R NEW HAVEN CLEAR 63 59 87 CALM 29.95R CHESTER MOCLDY 64 61 88 SW5 29.97R GROTON CLEAR 65 61 87 SW7 29.95R WILLIMANTIC CLEAR 62 59 90 CALM 29.96R IN RI CITY SKY/WX TMP DP RH WIND PRES REMARKS PROVIDENCE PTCLDY 64 59 83 SW5 29.95R BLOCK ISLAND CLEAR 64 61 88 SW10 29.97R WESTERLY CLEAR 66 61 84 SW6 29.96R IN MA CITY SKY/WX TMP DP RH WIND PRES REMARKS BOSTON PTCLDY 67 60 78 SW9G20 29.93R WORCESTER MOCLDY 64 57 78 W8 29.95R WESTFIELD PTCLDY 59 57 93 CALM 29.94R FOG PROVINCETOWN CLEAR 63 7 11 S10 29.94S NANTUCKET PTCLDY 64 61 90 SW7 29.96F $$ ANZ330-335-338-340-345-350-353-355-300400- COASTAL MARINE OBSERVATIONS STATION/POSITION TIME SKY/WX TEMP WIND PRES VSBY WAVE AIR SEA DIR/SP/G HT/PER (UTC) (F) (DEG/KT/KT) (MB) (MI) (FT/S) NY HARB ENTRANCE 0250 70 69 180/ 10/ 12 1014.3 3/ 7 4S FIRE IS 0203 66 N/A 4/ 8 20S FIRE ISLAND 0250 67 65 220/ 10/ 12 1014.7 4/ 8 GREAT SOUTH BAY 0200 70 72 240/ 12/ 16 N/A 23SW MTP 0250 66 64 220/ 12/ 14 1014.5 5/ 8 HUDSON CANYON NOT AVBL KINGS POINT 0200 72 65 190/ 5/ 5 1013.3 CENTRAL LI SOUND NOT AVBL EASTERN LI SOUND 0200 65 210/ 10/ 12 N/A ROBBINS REEF 0200 72 180/ 7/ 8 1013.0 $$ >>>>>>>>>>>>>>>>>>>>>>>>>>>> KEY <<<<<<<<<<<<<<<<<<<<<<<<<<< > < > SKY/WX - SKY CONDITION/PRESENT WEATHER < > TMP - TEMPERATURE IN FAHRENHEIT < > DP - DEWPOINT IN FAHRENHEIT < > RH - RELATIVE HUMIDITY IN PERCENT < > WIND - DIRECTION AND SPEED IN MPH < > PRES - MEAN SEA LEVEL PRESSURE IN INCHES OF HG < > WCI - WIND CHILL INDEX < > VSB - VISIBILITY IN MILES < > HX - HEAT INDEX < > TC - TEMPERATURE IN CELSIUS < > VRB - VARIABLE WIND DIRECTION < > < >>>>>>>>>>>>>>>>>>>>>>>>>>>> KEY <<<<<<<<<<<<<<<<<<<<<<<<<<<

USA.gov is the U.S. government's official web portal to all federal, state and local government web resources and services.